Miscellaneous Local Product
Issued by NWS North Platte, NE

Home | Current Version | Previous Version | Text Only | Print | Product List | Glossary On
Versions: 1 2 3 4 5 6 7 8 9 10 11 12 13 14 15 16 17 18 19 20 21 22 23 24 25 26 27 28 29 30 31 32 33 34 35 36 37 38 39 40 41 42 43 44 45 46 47 48 49 50
708
AXUS43 KLBF 090410
MISLBF


WESTERN AND NORTH CENTRAL NEBRASKA HOURLY WEATHER ROUNDUP
NATIONAL WEATHER SERVICE NORTH PLATTE NE
1000 PM CST THU DEC 08 2016

NOTE: "FAIR" INDICATES FEW OR NO CLOUDS BELOW 12,000 FEET WITH NO
SIGNIFICANT WEATHER AND/OR OBSTRUCTIONS TO VISIBILITY.

NOTE: STATIONS NOT REPORTING VARIABLES SUCH AS SKY/WEATHER OR
PRESSURE ARE PROVIDED BY RAWS AND APRS NETWORKS AND ARE NOT UNDER
NATIONAL WEATHER SERVICE QUALITY CONTROL.

...OBSERVATIONS IN AND NEAR THE EASTERN PANHANDLE OF NEBRASKA...

CITY           SKY/WX    TMP DP  RH WIND       PRES   REMARKS
PINE RIDGE     CLOUDY    -7 -11  83 E5        30.40F WCI -18
CHADRON        CLOUDY    -1  -8  72 N5        30.39F WCI -11
ALLIANCE       CLOUDY     2  -4  76 SE9       30.33F WCI -13
SIDNEY         CLOUDY     7   1  76 S9        30.32F WCI  -7
CRESCENT LAKE    N/A      6   0  76 S6          N/A  WCI  -4
$$

...OBSERVATIONS IN NORTHERN NEBRASKA AND FAR SOUTHERN SOUTH DAKOTA...

CITY           SKY/WX    TMP DP  RH WIND       PRES   REMARKS
WINNER         FAIR       1  -5  75 W5        30.58S WCI  -9
VALENTINE      CLOUDY    -4 -10  75 SW7       30.51F WCI -18
THEDFORD       CLOUDY     1  -5  73 CALM      30.50F
AINSWORTH      CLOUDY    -1  -5  83 CALM      30.51F
O`NEILL        CLEAR      3  -1  81 N3        30.58S
ORD            CLEAR      1  -5  75 CALM      30.57F
BROKEN BOW     CLOUDY    -1  -6  79 CALM      30.53S
VALENTINE NWR    N/A      0  -6  74 CALM        N/A
BUTTE            N/A      2  -2  81 W3          N/A
HALSEY           N/A      1  -8  65 CALM        N/A
CHAMBERS         N/A      3 -13  47 CALM        N/A
EWING            N/A      6   1  78 CALM        N/A
$$

...OBSERVATIONS IN SOUTHWEST NEBRASKA AND FAR NORTHEAST COLORADO...

CITY           SKY/WX    TMP DP  RH WIND       PRES   REMARKS
WRAY           CLOUDY    10   3  72 CALM      30.42F
HOLYOKE        FAIR       7   1  78 S7        30.41F WCI  -5
IMPERIAL       CLOUDY     1  -4  79 SE6       30.46F WCI -10
OGALLALA       CLOUDY     8   2  75 CALM      30.45F
NORTH PLATTE   CLOUDY     2  -4  76 E3        30.51F
MCCOOK         CLOUDY     3  -2  79 W6        30.54F WCI  -8
LEXINGTON      CLEAR      7   1  76 CALM      30.55F
STAPLETON        N/A      1  -6  71 CALM        N/A
GOTHENBURG       N/A      8   1  72 CALM        N/A
CALLAWAY         N/A      1  -4  80 CALM        N/A
$$

...OBSERVATIONS IN CENTRAL LINCOLN COUNTY AREA...

CITY           SKY/WX    TMP DP  RH WIND       PRES   REMARKS
N.P. AIRPORT   CLOUDY     2  -4  76 E3        30.51F
N.P. DOWNTOWN    N/A      9   4  81 CALM        N/A
N.P. SOUTHEAST   N/A      7   2  79 CALM        N/A
N.P. HILLCREST   N/A     10   3  72 CALM        N/A
$$

...SOME OBSERVATIONS FROM AROUND THE REGION...

CITY           SKY/WX    TMP DP  RH WIND       PRES   REMARKS
LARAMIE        CLOUDY    12   5  73 S9        30.04F WCI   0
CHEYENNE       CLOUDY     7   3  84 S8        30.14F WCI  -6
DENVER         CLOUDY     8   3  80 CALM      30.21F
AKRON          CLOUDY    11   4  73 S13       30.30F WCI  -4
SCOTTSBLUFF    CLOUDY     6  -1  73 E9        30.31F WCI  -8
RAPID CITY     CLOUDY    -6 -10  83 CALM      30.42F
BISMARCK       CLOUDY    -4  -8  83 SW5       30.60F WCI -15
PIERRE         CLOUDY     3  -3  76 N7        30.59F WCI  -9
SIOUX FALLS    CLEAR      7   3  84 NW6       30.59R WCI  -3
OMAHA          CLEAR     14   5  67 N6        30.65S WCI   5
GRAND ISLAND   CLEAR      8   2  76 CALM      30.60S
KANSAS CITY    CLEAR     17   8  67 W5        30.64R WCI  10
WICHITA        CLEAR     20  10  65 N5        30.66S WCI  13
OKLAHOMA CITY  CLOUDY    29   6  38 N9        30.65S WCI  20
DALLAS         PTCLDY    30  15  53 N8        30.66R WCI  22
AMARILLO       CLOUDY    24   9  52 S12       30.52F WCI  13
DODGE CITY     CLOUDY    15   6  67 CALM      30.57F
HAYS           CLOUDY    10   4  76 W3        30.61F
GOODLAND       CLOUDY     8   1  73 S7        30.44F WCI  -3
$$




USA.gov is the U.S. government's official web portal to all federal, state and local government web resources and services.